{"data":{"norad_id":67040,"epoch":"2026-09-20T14:03:49.416768Z","epoch_age_seconds":74246,"freshness":"FRESH","line1":"1 67040U 25294L   26263.58598862  .00000913  00000+0  42728-4 0  9998","line2":"2 67040  43.0051  17.6170 0004004 275.6795  84.3600 15.27582075 44600","mean_motion":15.27582075,"eccentricity":0.0004004,"inclination_deg":43.0051,"raan_deg":17.617,"arg_perigee_deg":275.6795,"mean_anomaly_deg":84.36,"bstar":4.2728e-5,"rev_number":4460,"period_min":94.266620665865,"perigee_km":480.29566632516,"apogee_km":485.79009917526,"semimajor_km":6861.1798827502,"source":"CELESTRAK","updated_at":"2026-09-21T09:00:36.093051Z"}}